[[{"header":{"parameterUnit":"m.s-1","parameterCategory":1,"la1":30.2991,"la2":30.254,"lo1":-89.0895,"lo2":-89.0444,"dy":0.0017,"dx":0.0017,"nx":28,"ny":28,"refTime":"2024-08-18T09:00:00:Z","depth":0,"parameterNumber":2,"parameterNumberName":"U-component_of_WINDS"},"data":[0,0,0,0,0,0,0,0,0,0,0,0,0,0,0,0,0,0,0,0,0,0,0,0,0,0,0,0,0,0,0,0,0,0,0,0,0,0,0,0,0,0,0,0,0,0,0,0,0,0,0,0,0,0,0,0,0,0,4.4487,4.4488,0,4.4637,4.4639,4.4641,4.461,4.4607,4.4604,4.4601,4.4756,4.4763,4.4769,0,0,0,0,0,0,0,0,0,0,0,0,0,4.4172,4.4178,4.4487,4.4488,4.449,4.4637,4.4639,4.4641,4.461,4.4607,4.4603,4.46,4.4754,4.4762,4.477,0,0,0,0,0,0,0,0,0,0,0,0,0,4.4314,4.418,4.4486,4.4492,4.4495,4.4637,4.4639,4.4642,4.4611,4.4607,4.4602,4.4599,4.4751,4.4761,4.4771,4.4917,0,0,4.4802,4.4806,0,0,0,0,0,0,0,0,4.4306,4.4326,4.449,4.4492,4.4495,4.46,4.4585,4.4734,4.4612,4.4567,4.4601,4.4596,4.4708,4.4721,4.4759,4.4924,4.493,4.4803,4.4809,4.4813,4.4816,0,0,0,0,0,0,0,4.4296,4.4319,4.4546,4.4492,4.4495,4.4488,4.4503,4.4613,4.4659,4.457,4.4568,4.4587,4.4708,4.4749,4.4762,4.4933,4.4802,4.4811,4.4818,4.4822,4.5223,4.5228,0,0,0,0,0,0,4.4284,4.4311,4.4541,4.4551,4.4388,4.4497,4.4514,4.4571,4.4657,4.4667,4.459,4.4585,4.4734,4.475,4.4767,4.4941,4.4813,4.4823,4.4828,4.5219,4.5224,4.5229,0,0,0,0,0,0,4.4277,4.4305,4.4535,4.443,4.4459,4.4507,4.457,4.4576,4.4616,4.4672,4.468,4.4623,4.4731,4.4753,4.4879,4.4946,4.4827,4.4836,4.5213,4.522,4.5227,4.5292,0,0,0,0,0,0,4.4268,4.4303,4.4358,4.4432,4.4465,4.4645,4.4575,4.4582,4.4634,4.4628,4.4705,4.4714,4.473,4.4864,4.4889,4.4958,4.4844,4.5207,4.5216,4.5225,4.5284,4.53,4.5314,0,0,0,0,0,4.4257,4.4371,4.4361,4.4389,4.4536,4.4649,4.4668,4.4683,4.4639,4.4695,4.4731,4.4712,4.4936,4.4878,4.4905,4.4978,4.5203,4.5214,4.5224,4.5277,4.5297,4.5314,0,0,0,0,0,0,4.4304,4.4381,4.4371,4.4512,4.4574,4.4643,4.4714,4.4704,4.4779,4.4771,4.4787,4.4805,4.4933,4.4969,4.4902,4.5123,4.5063,4.508,4.5094,4.5114,4.5128,4.5116,4.4852,0,0,0,0,0,4.4331,4.4417,4.4479,4.4598,4.4629,4.4667,4.4717,4.4723,4.4788,4.4814,4.4859,4.4923,4.5008,4.5063,4.5144,4.529,4.5305,4.5354,4.5369,4.5381,4.5394,4.5472,4.5494,4.5263,4.5263,4.5263,0,0,4.4387,4.444,4.4493,4.4609,4.4657,4.4745,4.4689,4.4785,4.485,4.4829,4.495,4.4986,4.5058,4.5194,4.5256,4.5228,4.5462,4.5394,4.5404,4.541,4.5485,4.5507,4.5526,4.5271,4.5269,4.5268,0,0,4.4534,4.4583,4.4686,4.4736,4.4811,4.4835,4.486,4.4931,4.4954,4.5076,4.5061,4.514,4.5285,4.5337,4.5382,4.5549,4.5533,4.5575,4.5653,4.5729,4.5747,4.5763,4.582,4.5841,4.5589,4.5589,4.5589,0,4.4594,4.4726,4.4741,4.4837,4.4888,4.4874,4.4977,4.5026,4.5123,4.5158,4.5125,4.5307,4.5355,4.5502,4.5542,4.5581,4.5608,4.5565,4.5743,4.5759,4.5775,4.5829,4.5851,4.5593,4.5593,4.5592,4.5592,0,4.4795,4.4887,4.4961,4.5055,4.5114,4.5214,4.5244,4.5303,4.5304,4.5332,4.5456,4.5513,4.5604,4.564,4.5643,4.5788,4.5767,4.5739,4.5679,4.5801,4.5852,4.5873,4.5599,4.5598,4.5597,4.5595,0,0,4.4973,4.5074,4.5101,4.5143,4.5225,4.5296,4.5395,4.5484,4.5533,4.5602,4.5684,4.5808,4.5782,4.5833,4.5842,4.5909,4.6034,4.5872,4.5874,4.5898,4.6195,4.6213,4.6238,4.6026,4.603,4.6033,4.6188,0,4.5125,4.53,4.5316,4.5473,4.5557,4.5544,4.5631,4.569,4.5719,4.5794,4.5826,4.5913,4.5873,4.5903,4.5969,4.6005,4.6094,4.5995,4.6101,4.6105,4.608,4.6265,4.6285,4.6429,4.6208,4.6212,4.6214,0,4.5325,4.5398,4.5563,4.5632,4.5668,4.5745,4.5828,4.5901,4.5967,4.5983,4.6041,4.6041,4.6143,4.6081,4.622,4.6152,4.6197,4.6222,4.6228,4.6236,4.6165,4.6276,4.6475,4.6495,4.6247,4.6244,4.6242,0,4.5435,4.5576,4.5692,4.5729,4.5813,4.5867,4.5904,4.5967,4.602,4.6092,4.6126,4.621,4.6255,4.632,4.6342,4.6296,4.6481,4.6421,4.6495,4.6495,4.6533,4.6529,4.6739,4.6566,4.6566,4.6566,4.6565,0,4.5602,4.5702,4.5742,4.5813,4.5925,4.5944,4.6055,4.6089,4.6146,4.6223,4.6219,4.6291,4.6317,4.6394,4.6413,4.6524,4.6546,4.6561,4.6564,4.6559,4.6557,4.6587,4.6576,4.6571,4.657,4.6569,4.6568,0,4.5742,4.5774,4.5899,4.5969,4.5988,4.6068,4.6127,4.6195,4.6223,4.6321,4.6345,4.6389,4.648,4.6509,4.6618,4.6631,4.676,4.6756,4.6737,4.6737,4.6809,4.68,4.7043,4.7074,4.6883,4.6885,4.6887,0,4.5845,4.5922,4.6,4.6051,4.609,4.6174,4.6227,4.6249,4.6304,4.6386,4.6445,4.6534,4.6606,4.6751,4.6793,4.6876,4.6872,4.6952,4.6885,4.6877,4.687,4.6864,4.6871,4.6963,4.6965,4.6967,4.6968,0,4.6023,4.6034,4.6111,4.6194,4.6258,4.6324,4.6388,4.643,4.6461,4.6524,4.6616,4.6672,4.6783,4.6872,4.6957,4.6995,4.6986,4.6989,4.701,4.7005,4.699,4.6996,4.6768,4.6983,4.6981,4.698,4.6979,4.6979,4.6146,4.6213,4.6278,4.6363,4.6414,4.6474,4.6541,4.6577,4.6654,4.6746,4.6755,4.6854,4.6919,4.7032,4.7074,4.7152,4.7129,4.7161,4.7168,4.7175,4.7179,4.698,4.7168,4.7167,4.7167,4.7167,4.7167,0,4.632,4.6362,4.6441,4.653,4.6597,4.6585,4.6654,4.6711,4.6798,4.686,4.6931,4.7036,4.7122,4.717,4.7256,4.7308,4.7306,4.733,4.7325,4.7333,4.7196,4.7167,4.733,4.733,4.733,4.733,4.733,4.733,4.6419,4.6531,4.6551,4.6688,4.6729,4.6826,4.6866,4.6921,4.697,4.7087,4.7158,4.719,4.7246,4.7335,4.7413,4.7425,4.7456,4.7481,4.749,4.736,4.7343,4.7327,4.73,4.7488,4.7488,4.7621,4.7622,4.7623]},{"header":{"parameterUnit":"m.s-1","parameterCategory":1,"la1":30.2991,"la2":30.254,"lo1":-89.0895,"lo2":-89.0444,"dy":0.0017,"dx":0.0017,"nx":28,"ny":28,"refTime":"2024-08-18T09:00:00:Z","depth":0,"parameterNumber":3,"parameterNumberName":"V-component_of_WINDS"},"data":[0,0,0,0,0,0,0,0,0,0,0,0,0,0,0,0,0,0,0,0,0,0,0,0,0,0,0,0,0,0,0,0,0,0,0,0,0,0,0,0,0,0,0,0,0,0,0,0,0,0,0,0,0,0,0,0,0,0,4.7834,4.7836,0,4.8038,4.804,4.8042,4.8048,4.8046,4.8043,4.8041,4.8248,4.8255,4.8263,0,0,0,0,0,0,0,0,0,0,0,0,0,4.7447,4.7454,4.7833,4.7836,4.7839,4.8037,4.804,4.8043,4.8049,4.8046,4.8043,4.804,4.8245,4.8255,4.8264,0,0,0,0,0,0,0,0,0,0,0,0,0,4.7629,4.7456,4.7833,4.7865,4.787,4.8037,4.804,4.8044,4.8049,4.8046,4.8042,4.8038,4.8242,4.8254,4.8265,4.8412,0,0,4.8301,4.8306,0,0,0,0,0,0,0,0,4.7619,4.7643,4.7858,4.7864,4.7869,4.8014,4.798,4.8167,4.805,4.7981,4.8041,4.8037,4.8173,4.819,4.8236,4.8422,4.8431,4.8302,4.8309,4.8314,4.8318,0,0,0,0,0,0,0,4.7606,4.7635,4.7914,4.7861,4.7868,4.7869,4.7891,4.8015,4.8095,4.7987,4.7988,4.8012,4.8175,4.8225,4.8241,4.8434,4.8302,4.8312,4.8319,4.8324,4.875,4.8754,0,0,0,0,0,0,4.7588,4.7624,4.7908,4.792,4.7733,4.7879,4.7904,4.7971,4.8094,4.8109,4.8015,4.8012,4.8207,4.8228,4.8249,4.8429,4.8314,4.8325,4.8332,4.8746,4.8751,4.8755,0,0,0,0,0,0,4.7579,4.7613,4.7899,4.7773,4.7809,4.789,4.7966,4.7977,4.8027,4.8115,4.8129,4.8052,4.8205,4.8232,4.8372,4.8436,4.8331,4.8341,4.8741,4.8747,4.8753,4.879,0,0,0,0,0,0,4.7568,4.761,4.7667,4.7774,4.7816,4.802,4.797,4.7984,4.8048,4.8045,4.8153,4.8168,4.8204,4.8354,4.8383,4.845,4.835,4.8735,4.8744,4.8751,4.8784,4.8797,4.8809,0,0,0,0,0,4.7554,4.7669,4.767,4.7704,4.7889,4.8023,4.8047,4.8088,4.8053,4.8111,4.8167,4.8164,4.8424,4.8368,4.8401,4.8473,4.8731,4.8741,4.8751,4.8778,4.8795,4.8809,0,0,0,0,0,0,4.7567,4.7683,4.7686,4.7838,4.7921,4.8024,4.8098,4.8104,4.8197,4.8191,4.8236,4.826,4.8399,4.845,4.8385,4.8621,4.8574,4.859,4.8583,4.86,4.8612,4.8597,4.836,0,0,0,0,0,4.7587,4.7687,4.7784,4.7909,4.795,4.8017,4.8077,4.8101,4.8188,4.8223,4.829,4.8374,4.8474,4.854,4.8637,4.8791,4.8814,4.8856,4.8869,4.8879,4.8893,4.8977,4.8997,4.8787,4.8787,4.8787,0,0,4.7631,4.7707,4.7767,4.7913,4.798,4.8082,4.8047,4.8156,4.8232,4.8239,4.8375,4.8427,4.8524,4.8671,4.8739,4.8718,4.8956,4.8891,4.8898,4.8907,4.8989,4.9009,4.9027,4.8794,4.8792,4.8791,0,0,4.7762,4.783,4.7942,4.8009,4.8111,4.8155,4.8182,4.8285,4.832,4.8457,4.8465,4.8555,4.8728,4.8796,4.8854,4.9011,4.9012,4.9041,4.9107,4.9189,4.9206,4.9221,4.9277,4.9296,4.9055,4.9055,4.9055,0,4.7803,4.7957,4.7998,4.8108,4.8172,4.8184,4.8298,4.8361,4.8489,4.8533,4.8507,4.8724,4.879,4.8953,4.8992,4.9038,4.9069,4.9029,4.92,4.9216,4.923,4.9284,4.9305,4.9058,4.9058,4.9057,4.9057,0,4.8003,4.811,4.8188,4.8312,4.8385,4.8496,4.8553,4.8622,4.8639,4.8685,4.8825,4.8904,4.9018,4.9058,4.9076,4.9225,4.9208,4.9191,4.9144,4.9252,4.9304,4.9325,4.9062,4.9061,4.906,4.906,0,0,4.8147,4.8293,4.8321,4.8378,4.8491,4.8574,4.8685,4.8797,4.8855,4.8943,4.9037,4.9183,4.9168,4.9233,4.9258,4.9331,4.945,4.9305,4.9307,4.9329,4.9618,4.963,4.9654,4.9451,4.9455,4.9458,4.961,0,4.8291,4.849,4.853,4.8702,4.8801,4.8814,4.8911,4.8991,4.9037,4.9127,4.9178,4.928,4.9253,4.9292,4.9364,4.942,4.9508,4.941,4.9538,4.9542,4.9514,4.9681,4.9694,4.9834,4.963,4.9634,4.9636,0,4.8485,4.8578,4.8761,4.8861,4.8904,4.8991,4.9096,4.9183,4.9273,4.9301,4.9374,4.9392,4.9507,4.9455,4.9614,4.9546,4.9601,4.9636,4.9643,4.9656,4.9596,4.9699,4.9879,4.99,4.9668,4.9666,4.9663,0,4.8572,4.8743,4.8875,4.8923,4.9043,4.9103,4.9156,4.9243,4.9308,4.94,4.9442,4.9546,4.9603,4.9683,4.9728,4.9686,4.9884,4.9835,4.991,4.9909,4.9952,4.9949,5.0143,4.9987,4.9987,4.9986,4.9986,0,4.8728,4.8839,4.8916,4.8996,4.9121,4.9166,4.9288,4.934,4.9417,4.9507,4.9524,4.9609,4.9663,4.9755,4.9791,4.9917,4.9943,4.9968,4.9977,4.9967,4.9964,5.0004,4.9995,4.9992,4.9991,4.999,4.9989,0,4.8847,4.8903,4.9047,4.9149,4.9177,4.9264,4.9351,4.943,4.9476,4.959,4.962,4.9692,4.9801,4.9854,4.9989,5.0013,5.0157,5.0158,5.0126,5.013,5.0202,5.0195,5.043,5.0463,5.0284,5.0286,5.0287,0,4.8943,4.9029,4.914,4.9203,4.9257,4.9357,4.9423,4.9471,4.9539,4.9648,4.9713,4.9824,4.9914,5.0088,5.0152,5.0255,5.026,5.0335,5.0275,5.0263,5.0261,5.0256,5.0264,5.0346,5.0347,5.0349,5.035,0,4.9107,4.9131,4.9226,4.9332,4.9411,4.9496,4.9579,4.9629,4.969,4.9765,4.9878,4.9948,5.0086,5.0195,5.0303,5.0357,5.0364,5.0368,5.0391,5.0382,5.036,5.0373,5.0156,5.0363,5.0361,5.036,5.036,5.0359,4.9218,4.9295,4.9386,4.9491,4.9559,4.9637,4.9716,4.9772,4.9867,4.9984,5.0006,5.0125,5.0213,5.0359,5.0416,5.0509,5.0492,5.0525,5.0534,5.0541,5.0545,5.0345,5.0529,5.0528,5.0528,5.0528,5.0528,0,4.9383,4.9442,4.9539,4.9656,4.9739,4.9739,4.9832,4.9901,5.0006,5.0088,5.0177,5.0306,5.0411,5.0484,5.0591,5.0652,5.0658,5.0678,5.0674,5.0686,5.0554,5.0524,5.0672,5.0672,5.0672,5.0672,5.0672,5.0672,4.9479,4.9609,4.9644,4.9807,4.9866,4.9983,5.0036,5.0108,5.0173,5.0317,5.0405,5.0452,5.053,5.0643,5.074,5.0758,5.0797,5.0818,5.0836,5.0711,5.0696,5.0681,5.0653,5.0826,5.0826,5.0961,5.0962,5.0963]}]]